Location: Beccas
(43.4309°N, 0.1528°E)
Time: 07:24:05
(UTC+00:00)

Cosmos 1703 - Pass Details

Date: 31 May 2022
Orbit: 518 x 535 km, 82.5° (Epoch: 06 July)

Event Time Altitude Azimuth Distance (km) Brightness Sun altitude
Exits shadow 02:15:54 38° 232° (SW) 827 3.7 -17.3°
Maximum altitude 02:17:00 51° 281° (W) 679 3.6 -17.2°
Drops below altitude 10° 02:20:50 10° 358° (N) 1,790 6.7 -16.8°
Sets 02:23:03 0° 4° (N) 2,683 7.9 -16.6°
